Lid_Strength_Index
2 6 7 9 13 14 16 13 12 10 9 7 5 7 8 7 9 12 2 1 0 0 -0 -0 -1 -1 -1 -1 -1 -1 -1 -1 -1 -1 -1 -1 -1 -1 -1 -1 -2 -2 -2 -1 -1 -1 -1 -1 -1
3 5 8 11 15 17 15 12 11 9 7 6 6 6 7 8 5 4 3 1 0 0 0 -0 -1 -1 -1 -1 -1 -1 -1 -1 -1 -1 -1 -1 -1 -1 -1 -1 -1 -1 -1 -1 -1 -1 -1 -1 -2
3 5 10 14 17 17 14 12 11 7 6 7 7 5 6 7 4 3 1 1 0 0 0 -0 -1 -1 -1 -1 -1 -1 -1 -1 -1 -1 -1 -1 -1 -1 -1 -2 -1 -2 -1 -1 -1 -1 -1 -1 -1
6 8 10 14 16 13 12 10 9 8 7 6 6 8 5 3 3 2 1 1 0 0 -0 -1 -1 -1 -1 -1 -1 -1 -1 -1 -1 -1 -1 -1 -1 -1 -1 -2 -1 -2 -1 -1 -1 -1 -1 -1 -2
7 10 13 16 14 12 11 10 10 9 8 7 6 9 7 3 1 1 1 1 1 0 0 -0 -1 -1 -1 -1 -1 -1 -1 -1 -1 -1 -1 -1 -1 -1 -2 -2 -2 -1 -1 -1 -1 -1 -1 -1 -1
10 11 15 16 13 11 10 9 9 8 7 7 7 7 6 2 2 1 1 2 0 0 0 -0 -1 -1 -1 -1 -1 -1 -1 -1 -1 -1 -1 -1 -1 -1 -2 -2 -2 -2 -2 -1 -1 -1 -1 -1 -1
10 13 15 15 13 11 10 9 9 7 8 8 5 9 6 4 3 1 1 0 0 -0 0 -0 -0 -1 -1 -1 -1 -1 -1 -1 -1 -1 -1 -1 -2 -2 -1 -1 -2 -2 -2 -2 -1 -1 -1 -1 -1
9 11 12 14 13 12 10 9 8 7 9 4 4 9 8 4 2 2 2 1 1 0 0 0 -0 -0 -0 -0 -1 -1 -1 -1 -1 -1 -1 -1 -2 -2 -2 -1 -1 -2 -2 -2 -1 -1 -1 -1 -1
9 13 15 14 13 11 10 9 7 8 9 7 5 5 4 2 2 2 2 2 2 1 1 0 0 0 -0 -0 -1 -1 -1 -1 -1 -1 -1 -1 -0 -0 -1 -1 -2 -2 -2 -2 -1 -1 -1 -1 -1
10 14 12 10 10 11 10 9 9 8 9 9 6 4 3 4 3 3 4 3 3 3 1 0 0 0 0 -0 -0 -0 -0 -0 -0 -0 -0 0 0 0 -0 -1 -2 -2 -2 -2 -1 -1 -1 -1 -0
12 12 10 9 9 10 9 9 8 9 9 9 7 6 4 4 3 4 3 3 3 2 1 1 0 -0 0 -0 -0 -0 -0 -0 -0 0 0 1 0 0 0 0 0 0 -1 0 -1 -0 -0 0 0
13 9 9 8 9 10 10 8 9 9 8 6 4 4 5 4 4 4 4 3 3 2 2 2 1 0 1 0 0 0 0 -0 -0 -0 -0 0 0 1 0 0 0 0 0 0 0 0 0 0 -0
11 9 9 8 9 9 8 9 9 9 7 6 5 5 4 4 4 9 7 4 2 2 3 2 0 0 0 0 0 0 0 0 0 -0 -0 0 1 1 1 1 1 0 0 0 0 0 0 0 -0
9 9 9 9 9 10 10 9 9 8 6 6 5 6 6 7 6 7 7 6 3 2 2 2 1 1 0 1 1 2 0 0 0 0 0 1 0 0 0 1 1 1 1 1 0 1 0 0 0
8 10 9 9 9 10 8 9 9 7 6 6 6 6 6 6 5 7 6 6 3 2 1 2 3 2 3 1 0 2 0 -0 1 1 2 2 3 3 1 1 1 1 1 1 1 1 1 1 1
10 11 13 10 8 8 9 12 8 7 7 7 7 6 6 5 5 5 5 5 5 2 2 2 1 3 5 1 0 1 1 1 1 2 2 2 3 2 0 1 2 0 1 1 1 2 1 1 1
12 14 12 11 8 9 9 11 8 7 8 8 8 7 6 6 6 5 4 3 5 2 2 2 1 1 1 3 3 1 0 1 1 3 3 3 2 -0 0 2 1 0 0 0 1 1 2 2 2
13 13 13 12 9 10 10 10 9 8 8 8 8 7 7 6 6 5 4 3 3 4 3 1 1 2 2 2 2 1 2 3 4 4 4 2 0 -0 1 2 0 0 0 1 1 2 2 1 1
11 11 12 10 9 11 12 11 10 8 10 9 8 8 7 7 5 5 3 3 2 3 7 2 3 3 2 1 3 3 2 3 4 3 2 2 0 0 1 1 0 1 2 1 1 1 2 2 2
10 12 12 10 9 11 11 11 9 9 9 9 8 8 7 7 7 6 5 3 2 2 2 3 2 2 1 1 4 4 3 2 2 2 2 1 1 0 1 0 1 2 1 1 2 2 2 3 2
11 12 12 11 10 10 11 12 11 9 9 8 7 7 8 8 7 7 6 4 3 3 3 2 2 2 1 1 3 1 3 2 4 4 5 4 2 -0 0 0 1 1 1 1 2 2 2 3 3
13 9 10 10 12 14 11 16 13 11 10 8 8 8 7 7 7 6 6 4 3 3 2 2 2 2 1 1 2 3 4 3 2 3 4 3 0 -0 -0 1 1 2 1 2 2 1 2 2 3
11 9 9 10 12 14 13 15 13 10 10 9 8 7 8 8 6 6 5 4 3 2 2 2 2 2 1 2 2 2 4 5 2 3 2 1 1 1 0 1 1 1 2 2 1 2 2 2 3
8 10 11 12 14 16 14 14 12 12 11 10 8 7 7 7 7 7 4 4 4 3 2 2 3 2 2 2 2 3 3 3 4 4 2 1 1 1 1 1 0 1 2 1 1 2 2 2 3
10 12 16 17 17 16 13 14 13 10 8 8 8 7 7 7 7 7 5 5 4 4 3 2 2 3 2 2 2 2 3 3 3 2 2 2 2 3 2 1 1 2 2 2 2 2 2 3 3
12 13 16 21 20 17 12 16 12 9 7 7 6 7 6 6 6 6 6 5 5 4 4 3 3 3 2 2 2 2 2 3 3 2 2 2 2 2 2 2 1 1 1 1 2 2 2 2 2
12 13 12 15 14 17 15 12 10 8 8 8 8 7 7 7 6 6 5 5 5 4 4 3 3 3 2 2 2 3 2 2 2 2 2 2 3 3 2 2 2 2 2 2 2 2 3 3 3
11 10 14 14 19 21 16 15 14 11 11 10 9 8 7 7 6 5 5 4 5 4 3 3 2 3 3 4 4 3 3 2 3 3 3 3 3 3 1 1 2 3 3 3 3 3 2 2 3
13 13 13 15 15 19 21 17 11 11 11 10 9 8 7 7 6 6 5 4 4 5 6 5 5 4 4 4 4 4 4 3 4 3 3 4 5 3 3 3 4 4 4 3 3 2 1 2 2
13 12 13 17 17 16 17 17 10 10 9 9 9 8 7 7 6 6 5 4 4 6 6 6 6 5 5 3 2 3 3 2 3 3 3 3 4 3 4 4 4 4 3 2 2 2 1 2 2